Weather History for KGEV - December, 2003

Change the Weather History Date:

Friday, December 5, 2003

  Actual Average Record
Temperature  
Mean Temperature 32 °F -  
Max Temperature 33 °F 49 °F 68 °F (2001)
Min Temperature 30 °F 25 °F 1 °F (1974)
Degree Days  
Heating Degree Days 34    
Moisture  
Dew Point 30 °F    
Average Humidity 96    
Maximum Humidity 100    
Minimum Humidity 93    
Precipitation  
Precipitation 0.32 in - - ()
Sea Level Pressure  
Sea Level Pressure 29.88 in    
Wind  
Wind Speed 0 mph (SSE)    
Max Wind Speed 4 mph    
Max Gust Speed -    
Averages and records for this station are not official NWS values.
T = Trace of Precipitation, MM = Missing Value Source: NWS Daily Summary

Daily Weather History Graph

Daily Weather History Graph

Search for Another Location

Airport or City:

Trip Planner

Search our weather history database for the weather conditions in past years. The results will help you decide how hot, cold, wet, or windy it might be!

Date:

Astronomy

Dec. 05, 2003 Rise Set
Actual Time 7:22 AM EST 5:10 PM EST
Civil Twilight 6:53 AM EST 5:38 PM EST
Nautical Twilight 6:21 AM EST 6:10 PM EST
Astronomical Twilight 5:50 AM EST 6:41 PM EST
Moon 3:21 PM EST (12/5) 4:20 AM EST (12/5)
Length of Visible Light 10h 44m
Length of Day
9h 48m
Waxing Gibbous, 91% of the Moon is Illuminated
Dec 5
Waxing Gibbous
Dec 8
Full
Dec 16
Last Quarter
Dec 23
New
Dec 30
First Quarter

Hourly Weather History & Observations

Time (EST) Temp. Windchill Dew Point Humidity Pressure Visibility Wind Dir Wind Speed Gust Speed Precip Events Conditions
12:00 AM 30.2 °F - 28.4 °F 93% 30.02 in 2.5 mi Calm Calm - N/A   Overcast
12:20 AM 30.2 °F - 28.4 °F 93% 30.01 in 2.0 mi Calm Calm - 0.01 in   Overcast
12:40 AM 30.2 °F - 30.2 °F 100% 30.00 in 1.0 mi Calm Calm - 0.01 in   Overcast
1:00 AM 30.2 °F - 28.4 °F 93% 29.98 in 0.5 mi Calm Calm - N/A Fog Light Freezing Fog
1:20 AM 30.2 °F - 30.2 °F 100% 29.98 in 0.5 mi Calm Calm - 0.01 in Fog Light Freezing Fog
1:40 AM 30.2 °F - 30.2 °F 100% 29.97 in 0.5 mi Calm Calm - 0.01 in Fog Light Freezing Fog
2:00 AM 30.2 °F - 30.2 °F 100% 29.96 in 0.8 mi Calm Calm - N/A   Overcast
2:20 AM 30.2 °F - 28.4 °F 93% 29.96 in 0.5 mi Calm Calm - N/A Fog Light Freezing Fog
2:40 AM 30.2 °F - 30.2 °F 100% 29.95 in 0.2 mi Calm Calm - N/A Fog Light Freezing Fog
3:00 AM 30.2 °F - 30.2 °F 100% 29.96 in 0.5 mi Calm Calm - N/A Fog Light Freezing Fog
3:20 AM 30.2 °F - 30.2 °F 100% 29.94 in 0.2 mi Calm Calm - N/A Fog Light Freezing Fog
3:40 AM 30.2 °F - 30.2 °F 100% 29.93 in 0.2 mi Calm Calm - N/A Fog Light Freezing Fog
4:00 AM 30.2 °F - 28.4 °F 93% 29.93 in 0.2 mi Calm Calm - N/A Fog Light Freezing Fog
4:20 AM 30.2 °F - 30.2 °F 100% 29.93 in 0.2 mi Calm Calm - N/A Fog Light Freezing Fog
4:40 AM 30.2 °F - 30.2 °F 100% 29.92 in 0.2 mi Calm Calm - 0.01 in Fog Light Freezing Fog
5:00 AM 30.2 °F - 30.2 °F 100% 29.92 in 0.2 mi Calm Calm - N/A Fog Light Freezing Fog
5:20 AM 30.2 °F - 28.4 °F 93% 29.91 in 0.2 mi Calm Calm - N/A Fog Light Freezing Fog
5:40 AM 30.2 °F - 28.4 °F 93% 29.90 in 0.2 mi Calm Calm - N/A Fog Light Freezing Fog
6:00 AM 30.2 °F - 28.4 °F 93% 29.90 in 0.2 mi Calm Calm - N/A Snow Light Snow
6:20 AM 30.2 °F - 28.4 °F 93% 29.90 in 0.2 mi Calm Calm - N/A Snow Light Snow
6:40 AM 30.2 °F - 28.4 °F 93% 29.90 in 0.5 mi Calm Calm - N/A Fog Light Freezing Fog
7:00 AM 30.2 °F - 28.4 °F 93% 29.90 in 0.2 mi Calm Calm - N/A Fog Light Freezing Fog
7:22 AM 30.2 °F - 28.4 °F 93% 29.89 in 0.2 mi Calm Calm - N/A Fog Light Freezing Fog
7:40 AM 30.2 °F - 28.4 °F 93% 29.90 in 0.2 mi Calm Calm - N/A Fog Light Freezing Fog
8:00 AM 30.2 °F - 28.4 °F 93% 29.90 in 0.2 mi Calm Calm - N/A   Overcast
8:21 AM 30.2 °F - 30.2 °F 100% 29.90 in 0.2 mi Calm Calm - N/A Fog Light Freezing Fog
8:40 AM 30.2 °F - 28.4 °F 93% 29.90 in 0.2 mi Calm Calm - N/A Fog Light Freezing Fog
9:00 AM 30.2 °F - 30.2 °F 100% 29.89 in 0.2 mi Calm Calm - N/A Fog Light Freezing Fog
9:20 AM 30.2 °F - 30.2 °F 100% 29.89 in 0.2 mi Calm Calm - N/A Fog Light Freezing Fog
9:40 AM 30.2 °F - 30.2 °F 100% 29.89 in 0.2 mi Calm Calm - N/A Fog Light Freezing Fog
10:00 AM 30.2 °F - 30.2 °F 100% 29.89 in 0.2 mi Calm Calm - N/A Fog Light Freezing Fog
10:20 AM 30.2 °F - 30.2 °F 100% 29.89 in 0.2 mi Calm Calm - N/A Fog Light Freezing Fog
10:42 AM 32.0 °F - 30.2 °F 93% 29.89 in 0.2 mi Calm Calm - N/A Fog Fog
11:03 AM 32.0 °F - 30.2 °F 93% 29.89 in 0.2 mi Calm Calm - 0.01 in Snow Light Snow
11:22 AM 32.0 °F - 30.2 °F 93% 29.88 in 0.2 mi Calm Calm - 0.06 in Fog Fog
11:43 AM 32.0 °F - 30.2 °F 93% 29.86 in 0.2 mi Calm Calm - 0.11 in Fog Fog
12:00 PM 32.0 °F - 30.2 °F 93% 29.85 in 0.2 mi Calm Calm - 0.01 in Fog Fog
12:22 PM 32.0 °F - 30.2 °F 93% 29.84 in 0.2 mi Calm Calm - 0.05 in Fog Fog
12:40 PM 32.0 °F - 30.2 °F 93% 29.83 in 0.2 mi Calm Calm - 0.08 in Fog Fog
1:00 PM 32.0 °F - 30.2 °F 93% 29.83 in 0.2 mi Calm Calm - 0.01 in Fog Fog
1:20 PM 32.0 °F - 30.2 °F 93% 29.82 in 0.2 mi Calm Calm - 0.03 in Fog Fog
1:40 PM 33.8 °F 30.8 °F 32.0 °F 93% 29.81 in 0.2 mi SSE 3.5 mph - 0.05 in Fog Fog
2:01 PM 32.0 °F 28.7 °F 30.2 °F 93% 29.81 in 0.2 mi SSE 3.5 mph - 0.01 in Fog Fog
2:21 PM 32.0 °F - 30.2 °F 93% 29.81 in 0.2 mi Calm Calm - 0.03 in Fog Fog
2:40 PM 32.0 °F 28.7 °F 30.2 °F 93% 29.81 in 0.2 mi South 3.5 mph - 0.04 in Fog Fog
3:00 PM 32.0 °F 28.7 °F 30.2 °F 93% 29.80 in 0.2 mi SE 3.5 mph - N/A Fog Fog
3:21 PM 30.2 °F 26.7 °F 30.2 °F 100% 29.81 in 0.2 mi South 3.5 mph - N/A Fog Light Freezing Fog
3:40 PM 30.2 °F - 30.2 °F 100% 29.81 in 0.2 mi Calm Calm - 0.01 in Fog Light Freezing Fog
4:00 PM 30.2 °F - 30.2 °F 100% 29.81 in 0.2 mi Calm Calm - N/A Fog Light Freezing Fog
4:20 PM 30.2 °F - 30.2 °F 100% 29.81 in 0.2 mi Calm Calm - N/A Fog Light Freezing Fog
4:40 PM 30.2 °F - 30.2 °F 100% 29.81 in 0.2 mi Calm Calm - 0.01 in Fog Light Freezing Fog
5:00 PM 30.2 °F - 30.2 °F 100% 29.81 in 0.2 mi Calm Calm - N/A Fog Light Freezing Fog
5:20 PM 30.2 °F - 28.4 °F 93% 29.80 in 0.2 mi Calm Calm - N/A Fog Light Freezing Fog
5:42 PM 30.2 °F - 28.4 °F 93% 29.80 in 0.2 mi Calm Calm - N/A Fog Light Freezing Fog
6:00 PM 30.2 °F - 28.4 °F 93% 29.81 in 0.2 mi Calm Calm - N/A Fog Light Freezing Fog
6:20 PM 30.2 °F - 28.4 °F 93% 29.82 in 0.2 mi Calm Calm - N/A Snow Light Snow
6:40 PM 30.2 °F - 28.4 °F 93% 29.82 in 0.2 mi Calm Calm - N/A Snow Light Snow
7:00 PM 30.2 °F - 28.4 °F 93% 29.82 in 0.2 mi Calm Calm - N/A Snow Light Snow
7:20 PM 30.2 °F - 28.4 °F 93% 29.82 in 0.2 mi Calm Calm - N/A Snow Light Snow
7:40 PM 30.2 °F - 28.4 °F 93% 29.82 in 0.2 mi Calm Calm - N/A Snow Light Snow
8:00 PM 30.2 °F - 28.4 °F 93% 29.82 in 0.2 mi Calm Calm - N/A Snow Light Snow
8:20 PM 30.2 °F - 28.4 °F 93% 29.82 in 1.5 mi Calm Calm - N/A Snow Light Snow
8:40 PM 32.0 °F 24.2 °F 30.2 °F 93% 29.82 in 2.5 mi WNW 9.2 mph - N/A Snow Light Snow
9:00 PM 32.0 °F 25.6 °F 30.2 °F 93% 29.82 in 10.0 mi West 6.9 mph - N/A Snow Light Snow
9:20 PM 32.0 °F 24.2 °F 30.2 °F 93% 29.82 in 10.0 mi WNW 9.2 mph - N/A   Mostly Cloudy
9:40 PM 32.0 °F 23.0 °F 28.4 °F 87% 29.82 in 10.0 mi NW 11.5 mph 19.6 mph N/A   Mostly Cloudy
10:21 PM 30.2 °F 22.6 °F 26.6 °F 86% 29.82 in 10.0 mi NW 8.1 mph 17.3 mph N/A   Scattered Clouds
10:40 PM 30.2 °F 21.3 °F 26.6 °F 86% 29.82 in 10.0 mi NW 10.4 mph 19.6 mph N/A   Scattered Clouds
11:00 PM 30.2 °F 21.3 °F 26.6 °F 86% 29.83 in 10.0 mi West 10.4 mph 16.1 mph N/A   Mostly Cloudy
11:20 PM 30.2 °F 24.3 °F 26.6 °F 86% 29.84 in 10.0 mi NW 5.8 mph - N/A   Overcast
11:40 PM 30.2 °F 24.3 °F 26.6 °F 86% 29.85 in 10.0 mi WNW 5.8 mph - N/A   Overcast